Regional Weather Roundup
Issued by NWS Midland/Odessa, TX

Skip options and go directly to product.
Home | Oldest Version | Previous Version | Current Version | All | Text Only | Save Text | Print | Product List | Glossary Off

Skip product version selection by date and time.   

801
ASUS44 KMAF 011910
RWRMAF
MIDLAND AREA WEATHER ROUNDUP
NATIONAL WEATHER SERVICE MIDLAND TX
200 PM CDT WED JUL 01 2015

...IN SOUTHWEST TEXAS AND SOUTHEAST NEW MEXICO...

CITY           SKY/WX    TMP DP  RH WIND       PRES   REMARKS
ALPINE         MOSUNNY   87  55  34 N5        30.17F
ANDREWS        FAIR      86  64  47 S13G20    30.06F
ARTESIA        SUNNY     90  55  31 SE10G22   30.04F
BIG SPRING     SUNNY     85  64  49 S14G21    30.07F
CARLSBAD       SUNNY     93  58  30 S13G18    30.01F
DRYDEN           N/A     88  66  48 S9G20     30.03F
FORT STOCKTON  MOSUNNY   91  65  41 MISG      30.03F
GUAD PASS      SUNNY     82  52  35 SW6       30.19F
HOBBS          SUNNY     88  55  33 S9        30.07F
MARFA          PTSUNNY   82  54  36 E5        30.17S
MIDLAND AIRPK  SUNNY     86  64  47 S13G20    30.06F
MIDLAND INTL   MOSUNNY   84  66  54 S16G22    30.05F
ODESSA         MOSUNNY   84  65  52 S16       30.06F
PECOS          SUNNY     91  57  32 N6        30.00F
PRESIDIO       FAIR      91  60  35 S7        30.02F
SEMINOLE       SUNNY     89  57  33 S13       30.06F
SNYDER         MOSUNNY   83  69  62 S10G16    30.05F
WINK           SUNNY     89  63  41 SE12G18   30.01F
$$
...OTHER STATIONS IN TEXAS...

CITY           SKY/WX    TMP DP  RH WIND       PRES   REMARKS
ABILENE        MOSUNNY   87  67  51 SW16G24   30.03F
AMARILLO       SUNNY     91  58  32 SW12      30.01F
AUSTIN         PTSUNNY   87  73  62 S14G20    30.03F
BROWNSVILLE    CLOUDY    81  72  74 SW22G28   30.01F
CORPUS CHRISTI CLOUDY    76  72  87 S10       30.05F
DALLAS FTW     PTSUNNY   90  69  50 SW17G24   29.99F
DEL RIO        MOSUNNY   87  70  56 SE20      30.00F
EL PASO        MOSUNNY   91  51  25 VRB6      30.06F
HOUSTON INT    CLOUDY    77  74  90 SE8       30.06F
LUBBOCK        MOSUNNY   89  59  36 S13       30.03F
SAN ANGELO     MOSUNNY   86  66  51 S15G21    30.04F
SAN ANTONIO    HVY RAIN  77  70  79 S28G49    30.08R
WACO           PTSUNNY   89  71  55 S14       30.03F
WICHITA FALLS  NOT AVBL
$$
...OTHER LOCATIONS IN NEW MEXICO...

CITY           SKY/WX    TMP DP  RH WIND       PRES   REMARKS
ALAMAGORDO     SUNNY     90  48  24 SE8       30.07F
ALBUQUERQUE    MOSUNNY   88  47  24 S5        30.13F
CANNON AFB     SUNNY     89  50  25 VRB6      30.07S
CLOVIS         SUNNY     88  52  29 W7          N/A
HOLLOMAN AFB   MOSUNNY   90  48  23 SE6       30.05F
ROSWELL        SUNNY     90  54  29 VRB5      30.03F
RUIDOSO        SUNNY     79  45  29 SE7       30.27F
SANTA FE       MOSUNNY   84  44  24 MISG      30.19F
TRUTH OR CONSE SUNNY     90  48  23 E7        30.09F
TUCUMCARI      SUNNY     95  49  20 S6        30.01F
$$

USA.gov is the U.S. government's official web portal to all federal, state and local government web resources and services.